Regional Weather Roundup
Issued by NWS

Home | Current Version | Previous Version | Graphics & Text | Print | Product List | Glossary On
Versions: 1 2 3 4 5 6 7 8 9 10 11 12 13 14 15 16 17 18 19 20 21 22 23 24 25 26 27 28 29 30 31 32 33 34 35 36 37 38 39 40 41 42 43 44 45 46 47 48 49 50
000
ASUS43 KFSD 211410
RWRSD

WEATHER ROUNDUP FOR SOUTH DAKOTA
NATIONAL WEATHER SERVICE SIOUX FALLS SD
800 AM CST FRI NOV 21 2014

NOTE: "FAIR" INDICATES FEW OR NO CLOUDS BELOW 12,000 FEET WITH NO
SIGNIFICANT WEATHER AND/OR OBSTRUCTIONS TO VISIBILITY.


SDZ001>005-009-010-012>017-211500-
NORTHWEST AND NORTH CENTRAL SOUTH DAKOTA

CITY           SKY/WX    TMP DP  RH WIND       PRES   REMARKS
BUFFALO          N/A     31  21  66 W12       29.72S WCI  22
FAITH            N/A     28  19  69 SW6       29.79S WCI  22
MOBRIDGE       CLOUDY    20  18  92 S7        29.79F FOG     WCI  11
$$

SDZ012>016-024>037-041>051-057-063-072>074-211500-
SOUTHWEST AND SOUTH CENTRAL SOUTH DAKOTA

CITY           SKY/WX    TMP DP  RH WIND       PRES   REMARKS
RAPID CTY ARPT MOCLDY    32  22  66 NW6       29.83R WCI  26
PIERRE         PTCLDY    17  15  92 CALM      29.86R
CUSTER         CLOUDY    37  20  50 W6        29.85S
ELLSWORTH AFB  MOCLDY    31  21  66 W6        29.82R WCI  26
PHILIP         MOCLDY    16  10  77 W5        29.84S WCI   9
PINE RIDGE     MOCLDY    29  21  72 W7        29.88R WCI  22
SPEARFISH      FAIR      32  19  59 CALM      29.84R
WINNER         FAIR      31  21  66 SW20      29.86R WCI  19
$$

SDZ004>011-016>023-039-040-211500-
NORTHEAST SOUTH DAKOTA

CITY           SKY/WX    TMP DP  RH WIND       PRES   REMARKS
ABERDEEN       PTCLDY    18  13  80 S15       29.90F WCI   4
WATERTOWN      PTCLDY    18  14  84 S14       29.92F WCI   4
SISSETON         N/A     24  18  77 SE15      29.91S WCI  11
$$

SDZ017-020-022-023-036>040-048>070-211500-
SOUTHEAST SOUTH DAKOTA

CITY           SKY/WX    TMP DP  RH WIND       PRES   REMARKS
SIOUX FALLS    PTCLDY    20  15  81 S23G36    30.05F WCI   3
HURON          PTCLDY    19  15  84 S15G23    29.94S WCI   5
CHAMBERLAIN    PTCLDY    26  21  80 S7        29.89S WCI  19
MITCHELL       PTCLDY    20  16  84 S17       29.98F WCI   5
YANKTON        PTCLDY    19  14  79 SE9       30.09S WCI   9
$$

ABBREVIATIONS USED IN REMARKS
   TC - TEMPERATURE IN CELSIUS
  WCI - WIND CHILL INDEX
   HX - HEAT INDEX
  VSB - VISIBILITY




USA.gov is the U.S. government's official web portal to all federal, state and local government web resources and services.